Location: Keewatin
(47.4004°N, 93.0827°W)
Time: 12:19:56
(UTC+00:00)

KKS-1 - Pass Details

Date: 24 February 2020
Orbit: 637 x 650 km, 98.3° (Epoch: 05 April)

Event Time Altitude Azimuth Distance (km) Brightness Sun altitude
Rises 03:17:55 0° 3° (N) 2,953 ? -35.4°
Reaches altitude 10° 03:20:27 10° 349° (N) 2,038 ? -35.8°
Enters shadow 03:20:28 10° 349° (N) 2,036 ? -35.8°
